Location: Unspecified
(43.0730°N, 0.0000°E)
Time: 16:57:58
(UTC+00:00)

IRIS - Visible Passes

Search period start: 04 April 2026 00:00
Search period end: 14 April 2026 00:00
Orbit: 595 x 628 km, 97.9° (Epoch: 29 March)

Date Brightness Start Highest point End Pass type
(mag) Time Alt. Az. Time Alt. Az. Time Alt. Az.
4 Apr ? 20:23:11 10° NNW 20:25:52 17° WNW 20:28:32 10° WSW visible
5 Apr ? 19:00:40 10° NNE 19:04:56 71° ESE 19:09:07 10° S visible
5 Apr ? 20:38:39 10° NW 20:40:15 12° WNW 20:41:51 10° W visible
6 Apr ? 19:15:13 10° N 19:19:29 80° WNW 19:23:41 10° SSW visible
7 Apr ? 19:29:51 10° N 19:34:01 55° WNW 19:38:06 10° SSW visible
8 Apr ? 04:50:25 10° E 04:52:32 13° ENE 04:54:38 10° NNE visible
8 Apr ? 19:44:33 10° N 19:48:30 38° WNW 19:52:23 10° SW visible
9 Apr ? 19:59:21 10° N 20:02:57 27° WNW 20:06:30 10° SW visible
10 Apr ? 20:14:18 10° NNW 20:17:22 20° WNW 20:20:25 10° WSW visible
11 Apr ? 20:29:28 10° NNW 20:31:46 14° WNW 20:34:03 10° W visible
12 Apr ? 19:06:36 10° NNE 19:10:51 82° ESE 19:15:03 10° S visible
12 Apr ? 20:45:28 10° NW 20:46:07 10° WNW 20:46:46 10° WNW visible
13 Apr ? 19:21:10 10° N 19:25:23 69° WNW 19:29:33 10° SSW visible
